| time (UTC) | temp F | wind direction | speed knots | gust knots | rain 1hr in | rain 24hr in | rain mn in | humidity % | barometer mb |
| 20260509162943 | 76 | 107 | 0.9 | 1.7 | 0.00 | 0.00 | 0.00 | 56 | 1010.7 |
| 20260509162443 | 75 | 61 | 0.9 | 0.9 | 0.00 | 0.00 | 0.00 | 55 | 1011.2 |
| 20260509161938 | 74 | 56 | 0.0 | 0.0 | 0.00 | 0.00 | 0.00 | 60 | 1010.8 |
| 20260509161434 | 75 | 275 | 2.6 | 2.6 | 0.00 | 0.00 | 0.00 | 55 | 1011.0 |
| 20260509160930 | 77 | 44 | 0.9 | 0.9 | 0.00 | 0.00 | 0.00 | 55 | 1011.0 |
| 20260509160426 | 76 | 59 | 0.0 | 0.9 | 0.00 | 0.00 | 0.00 | 54 | 1011.0 |
| 20260509155921 | 76 | 73 | 0.9 | 0.9 | 0.00 | 0.00 | 0.00 | 56 | 1010.9 |
| 20260509155418 | 75 | 51 | 0.0 | 0.0 | 0.00 | 0.00 | 0.00 | 57 | 1011.2 |
| 20260509154915 | 76 | 44 | 0.0 | 0.9 | 0.00 | 0.00 | 0.00 | 58 | 1011.1 |
| 20260509154411 | 75 | 75 | 0.9 | 0.9 | 0.00 | 0.00 | 0.00 | 60 | 1011.0 |
| 20260509153908 | 74 | 48 | 0.9 | 0.9 | 0.00 | 0.00 | 0.00 | 59 | 1011.0 |
| 20260509153405 | 74 | 80 | 1.7 | 1.7 | 0.00 | 0.00 | 0.00 | 63 | 1010.9 |
| 20260509152902 | 73 | 23 | 2.6 | 5.2 | 0.00 | 0.00 | 0.00 | 64 | 1010.9 |
| 20260509152358 | 72 | 37 | 0.9 | 0.9 | 0.00 | 0.00 | 0.00 | 66 | 1010.8 |
| 20260509151855 | 73 | 255 | 4.3 | 5.2 | 0.00 | 0.00 | 0.00 | 63 | 1010.9 |
| 20260509151351 | 73 | 42 | 0.0 | 0.9 | 0.00 | 0.00 | 0.00 | 61 | 1010.9 |
| 20260509150849 | 73 | 58 | 0.0 | 0.0 | 0.00 | 0.00 | 0.00 | 62 | 1010.8 |
| 20260509150347 | 73 | 50 | 0.9 | 0.9 | 0.00 | 0.00 | 0.00 | 63 | 1010.8 |
| 20260509145844 | 72 | 133 | 0.9 | 1.7 | 0.00 | 0.00 | 0.00 | 65 | 1010.7 |
| 20260509145338 | 71 | 188 | 2.6 | 3.5 | 0.00 | 0.00 | 0.00 | 65 | 1010.7 |
| 20260509144835 | 71 | 236 | 0.9 | 0.9 | 0.00 | 0.00 | 0.00 | 67 | 1010.9 |
| 20260509144332 | 71 | 38 | 0.9 | 0.9 | 0.00 | 0.00 | 0.00 | 64 | 1010.9 |
| 20260509143829 | 71 | 61 | 0.0 | 0.9 | 0.00 | 0.00 | 0.00 | 67 | 1010.8 |
| 20260509143327 | 70 | 44 | 0.9 | 0.9 | 0.00 | 0.00 | 0.00 | 69 | 1010.7 |
| 20260509142823 | 69 | 67 | 0.0 | 0.0 | 0.00 | 0.00 | 0.00 | 72 | 1010.8 |
| 20260509142319 | 68 | 55 | 0.0 | 0.0 | 0.00 | 0.00 | 0.00 | 73 | 1010.7 |
| 20260509141814 | 68 | 185 | 1.7 | 2.6 | 0.00 | 0.00 | 0.00 | 73 | 1010.5 |
| 20260509141312 | 67 | 210 | 1.7 | 1.7 | 0.00 | 0.00 | 0.00 | 74 | 1010.6 |
| 20260509140808 | 67 | 18 | 0.9 | 0.9 | 0.00 | 0.00 | 0.00 | 74 | 1010.7 |
| 20260509140305 | 66 | 215 | 1.7 | 2.6 | 0.00 | 0.00 | 0.00 | 76 | 1010.5 |
| 20260509135803 | 65 | 323 | 1.7 | 1.7 | 0.00 | 0.00 | 0.00 | 78 | 1010.5 |
| 20260509135300 | 65 | 6 | 1.7 | 1.7 | 0.00 | 0.00 | 0.00 | 78 | 1010.5 |
| 20260509134758 | 65 | 293 | 1.7 | 2.6 | 0.00 | 0.00 | 0.00 | 79 | 1010.6 |
| 20260509134255 | 64 | 359 | 1.7 | 2.6 | 0.00 | 0.00 | 0.00 | 80 | 1010.5 |
| 20260509133752 | 64 | 69 | 0.9 | 1.7 | 0.00 | 0.00 | 0.00 | 83 | 1010.5 |
| 20260509133248 | 64 | 215 | 2.6 | 2.6 | 0.00 | 0.00 | 0.00 | 82 | 1010.3 |
| 20260509132747 | 63 | 195 | 1.7 | 2.6 | 0.00 | 0.00 | 0.00 | 83 | 1010.3 |
| 20260509132246 | 63 | 22 | 1.7 | 1.7 | 0.00 | 0.00 | 0.00 | 83 | 1010.3 |
| 20260509131742 | 62 | 32 | 0.9 | 0.9 | 0.00 | 0.00 | 0.00 | 85 | 1010.3 |
| 20260509131238 | 62 | 39 | 0.9 | 0.9 | 0.00 | 0.00 | 0.00 | 85 | 1009.9 |
| 20260509130735 | 62 | 19 | 0.9 | 1.7 | 0.00 | 0.00 | 0.00 | 85 | 1010.1 |
| 20260509130230 | 61 | 299 | 0.9 | 0.9 | 0.00 | 0.00 | 0.00 | 87 | 1010.1 |
| 20260509125727 | 61 | 64 | 0.9 | 0.9 | 0.00 | 0.00 | 0.00 | 87 | 1010.0 |
| 20260509125224 | 61 | 27 | 0.0 | 0.0 | 0.00 | 0.00 | 0.00 | 87 | 1010.2 |
| 20260509124720 | 60 | 63 | 0.0 | 0.0 | 0.00 | 0.00 | 0.00 | 88 | 1010.3 |
| 20260509124217 | 60 | 70 | 0.0 | 0.9 | 0.00 | 0.00 | 0.00 | 89 | 1010.0 |
| 20260509123716 | 59 | 43 | 0.0 | 0.9 | 0.00 | 0.00 | 0.00 | 91 | 1009.9 |
| 20260509123212 | 59 | 44 | 0.0 | 0.9 | 0.00 | 0.00 | 0.00 | 93 | 1010.0 |
| 20260509122708 | 58 | 60 | 0.0 | 0.0 | 0.00 | 0.00 | 0.00 | 94 | 1009.9 |
| 20260509122205 | 57 | 63 | 0.0 | 0.0 | 0.00 | 0.00 | 0.00 | 97 | 1009.9 |
| 20260509121702 | 57 | 49 | 0.0 | 0.0 | 0.00 | 0.00 | 0.00 | 98 | 1009.8 |
| 20260509121159 | 56 | 48 | 0.0 | 0.0 | 0.00 | 0.00 | 0.00 | 98 | 1009.9 |
| 20260509120657 | 55 | 50 | 0.0 | 0.0 | 0.00 | 0.00 | 0.00 | 98 | 1009.8 |
| 20260509120155 | 55 | 56 | 0.0 | 0.0 | 0.00 | 0.00 | 0.00 | 98 | 1009.8 |
| 20260509115652 | 55 | 45 | 0.0 | 0.0 | 0.00 | 0.00 | 0.00 | 98 | 1009.7 |
| 20260509115150 | 54 | 45 | 0.0 | 0.0 | 0.00 | 0.00 | 0.00 | 98 | 1009.6 |
| 20260509114648 | 54 | 46 | 0.0 | 0.0 | 0.00 | 0.00 | 0.00 | 98 | 1009.4 |
| 20260509114147 | 54 | 46 | 0.0 | 0.0 | 0.00 | 0.00 | 0.00 | 97 | 1009.4 |
| 20260509113644 | 53 | 46 | 0.0 | 0.0 | 0.00 | 0.00 | 0.00 | 97 | 1009.2 |
| 20260509113141 | 53 | 46 | 0.0 | 0.0 | 0.00 | 0.00 | 0.00 | 97 | 1009.4 |
| 20260509112638 | 53 | 46 | 0.0 | 0.0 | 0.00 | 0.00 | 0.00 | 97 | 1009.5 |
| 20260509112135 | 53 | 46 | 0.0 | 0.0 | 0.00 | 0.00 | 0.00 | 97 | 1009.1 |
| 20260509111632 | 53 | 46 | 0.0 | 0.0 | 0.00 | 0.00 | 0.00 | 97 | 1009.1 |
| 20260509111129 | 53 | 46 | 0.0 | 0.0 | 0.00 | 0.00 | 0.00 | 97 | 1008.9 |
| 20260509110626 | 53 | 46 | 0.0 | 0.0 | 0.00 | 0.00 | 0.00 | 97 | 1008.9 |
| 20260509110123 | 53 | 46 | 0.0 | 0.0 | 0.00 | 0.00 | 0.00 | 97 | 1008.9 |
| 20260509105621 | 53 | 46 | 0.0 | 0.0 | 0.00 | 0.00 | 0.00 | 97 | 1009.0 |
| 20260509105119 | 53 | 46 | 0.0 | 0.0 | 0.00 | 0.00 | 0.00 | 96 | 1008.9 |
| 20260509104615 | 53 | 46 | 0.0 | 0.0 | 0.00 | 0.00 | 0.00 | 96 | 1008.8 |
| 20260509104112 | 53 | 46 | 0.0 | 0.0 | 0.00 | 0.00 | 0.00 | 96 | 1008.6 |
| 20260509103610 | 53 | 46 | 0.0 | 0.0 | 0.00 | 0.00 | 0.00 | 96 | 1008.5 |
| 20260509103108 | 53 | 46 | 0.0 | 0.0 | 0.00 | 0.00 | 0.00 | 96 | 1008.6 |
| 20260509102605 | 53 | 46 | 0.0 | 0.0 | 0.00 | 0.00 | 0.00 | 95 | 1008.7 |
| 20260509102102 | 54 | 46 | 0.0 | 0.0 | 0.00 | 0.00 | 0.00 | 95 | 1008.6 |
| 20260509101558 | 54 | 46 | 0.0 | 0.0 | 0.00 | 0.00 | 0.00 | 95 | 1008.8 |
| 20260509101055 | 54 | 46 | 0.0 | 0.0 | 0.00 | 0.00 | 0.00 | 94 | 1008.8 |
| 20260509100552 | 54 | 46 | 0.0 | 0.0 | 0.00 | 0.00 | 0.00 | 94 | 1008.8 |
| 20260509100049 | 54 | 46 | 0.0 | 0.0 | 0.00 | 0.00 | 0.00 | 94 | 1008.9 |
| 20260509095546 | 54 | 46 | 0.0 | 0.0 | 0.00 | 0.00 | 0.00 | 94 | 1008.9 |
| 20260509095044 | 55 | 46 | 0.0 | 0.0 | 0.00 | 0.00 | 0.00 | 93 | 1008.9 |
| 20260509094539 | 55 | 46 | 0.0 | 0.0 | 0.00 | 0.00 | 0.00 | 93 | 1008.9 |
| 20260509094037 | 55 | 46 | 0.0 | 0.0 | 0.00 | 0.00 | 0.00 | 92 | 1008.9 |
| 20260509093535 | 55 | 46 | 0.0 | 0.0 | 0.00 | 0.00 | 0.00 | 91 | 1008.9 |
| 20260509093032 | 56 | 46 | 0.0 | 0.0 | 0.00 | 0.00 | 0.00 | 91 | 1008.7 |
| 20260509092530 | 56 | 46 | 0.0 | 0.0 | 0.00 | 0.00 | 0.00 | 90 | 1009.1 |
| 20260509092029 | 56 | 46 | 0.0 | 0.0 | 0.00 | 0.00 | 0.00 | 89 | 1008.8 |
| 20260509091525 | 57 | 46 | 0.0 | 0.0 | 0.00 | 0.00 | 0.00 | 89 | 1009.0 |
| 20260509091022 | 57 | 45 | 0.0 | 0.0 | 0.00 | 0.00 | 0.00 | 88 | 1009.0 |
| 20260509090519 | 57 | 45 | 0.0 | 0.0 | 0.00 | 0.00 | 0.00 | 88 | 1008.8 |
| 20260509090017 | 57 | 46 | 0.0 | 0.0 | 0.00 | 0.00 | 0.00 | 87 | 1008.8 |
| 20260509085514 | 57 | 56 | 0.0 | 0.0 | 0.00 | 0.00 | 0.00 | 87 | 1008.4 |
| 20260509085010 | 58 | 27 | 0.9 | 0.9 | 0.00 | 0.00 | 0.00 | 86 | 1008.4 |
| 20260509084507 | 58 | 43 | 0.0 | 0.9 | 0.00 | 0.00 | 0.00 | 86 | 1008.4 |
| 20260509084004 | 58 | 76 | 0.9 | 1.7 | 0.00 | 0.00 | 0.00 | 86 | 1008.4 |
| 20260509083501 | 58 | 127 | 0.0 | 0.9 | 0.00 | 0.00 | 0.00 | 85 | 1008.5 |
| 20260509082958 | 58 | 56 | 0.0 | 0.0 | 0.00 | 0.00 | 0.00 | 85 | 1008.6 |
| 20260509082455 | 58 | 63 | 0.0 | 0.0 | 0.00 | 0.00 | 0.00 | 84 | 1008.5 |
| 20260509081952 | 58 | 81 | 0.9 | 0.9 | 0.00 | 0.00 | 0.00 | 84 | 1008.5 |
| 20260509081450 | 59 | 69 | 0.0 | 0.9 | 0.00 | 0.00 | 0.00 | 84 | 1008.5 |
| 20260509080946 | 59 | 57 | 0.0 | 0.0 | 0.00 | 0.00 | 0.00 | 83 | 1008.6 |
| 20260509080445 | 59 | 61 | 0.0 | 0.0 | 0.00 | 0.00 | 0.00 | 83 | 1008.6 |
| 20260509075942 | 59 | 47 | 0.0 | 0.0 | 0.00 | 0.00 | 0.00 | 82 | 1008.4 |
| 20260509075439 | 59 | 61 | 0.0 | 0.0 | 0.00 | 0.00 | 0.00 | 81 | 1008.5 |
| 20260509074937 | 60 | 66 | 0.0 | 0.9 | 0.00 | 0.00 | 0.00 | 81 | 1008.4 |
| 20260509074434 | 60 | 46 | 0.0 | 0.9 | 0.00 | 0.00 | 0.00 | 80 | 1008.6 |
| 20260509073930 | 60 | 59 | 0.0 | 0.0 | 0.00 | 0.00 | 0.00 | 79 | 1008.5 |
| 20260509073427 | 61 | 54 | 0.0 | 0.0 | 0.00 | 0.00 | 0.00 | 79 | 1008.7 |
| 20260509072924 | 61 | 17 | 0.9 | 1.7 | 0.00 | 0.00 | 0.00 | 78 | 1008.8 |
| 20260509072421 | 61 | 43 | 0.9 | 0.9 | 0.00 | 0.00 | 0.00 | 78 | 1008.7 |
| 20260509071917 | 61 | 42 | 0.9 | 0.9 | 0.00 | 0.00 | 0.00 | 78 | 1008.7 |
| 20260509071414 | 61 | 54 | 0.0 | 0.9 | 0.00 | 0.00 | 0.00 | 78 | 1008.9 |
| 20260509070912 | 61 | 281 | 3.5 | 5.2 | 0.00 | 0.00 | 0.00 | 77 | 1009.0 |
| 20260509070408 | 61 | 80 | 0.9 | 0.9 | 0.00 | 0.00 | 0.00 | 77 | 1009.0 |
| 20260509065904 | 61 | 43 | 0.0 | 0.0 | 0.00 | 0.00 | 0.00 | 78 | 1008.9 |
| 20260509065400 | 61 | 67 | 1.7 | 1.7 | 0.00 | 0.00 | 0.00 | 77 | 1009.0 |
| 20260509064856 | 61 | 21 | 0.9 | 0.9 | 0.00 | 0.00 | 0.00 | 77 | 1009.1 |
| 20260509064354 | 61 | 100 | 0.9 | 0.9 | 0.00 | 0.00 | 0.00 | 77 | 1009.1 |
| 20260509063852 | 61 | 50 | 0.9 | 0.9 | 0.00 | 0.00 | 0.00 | 77 | 1009.0 |
| 20260509063348 | 61 | 47 | 0.9 | 0.9 | 0.00 | 0.00 | 0.00 | 77 | 1009.0 |
| 20260509062845 | 61 | 35 | 0.9 | 1.7 | 0.00 | 0.00 | 0.00 | 77 | 1008.9 |
| 20260509062342 | 61 | 107 | 0.9 | 0.9 | 0.00 | 0.00 | 0.00 | 77 | 1009.0 |
| 20260509061839 | 61 | 42 | 0.9 | 1.7 | 0.00 | 0.00 | 0.00 | 77 | 1008.9 |
| 20260509061338 | 61 | 8 | 0.9 | 0.9 | 0.00 | 0.00 | 0.00 | 76 | 1008.8 |
| 20260509060834 | 61 | 10 | 1.7 | 1.7 | 0.00 | 0.00 | 0.00 | 76 | 1008.9 |
| 20260509060331 | 61 | 280 | 1.7 | 3.5 | 0.00 | 0.00 | 0.00 | 76 | 1008.9 |
| 20260509055826 | 61 | 35 | 0.0 | 0.9 | 0.00 | 0.00 | 0.00 | 76 | 1009.1 |
| 20260509055322 | 61 | 177 | 1.7 | 2.6 | 0.00 | 0.00 | 0.00 | 76 | 1008.9 |
| 20260509054819 | 60 | 47 | 0.9 | 0.9 | 0.00 | 0.00 | 0.00 | 76 | 1009.1 |
| 20260509054316 | 60 | 62 | 0.0 | 0.0 | 0.00 | 0.00 | 0.00 | 77 | 1009.1 |
| 20260509053814 | 60 | 83 | 0.9 | 0.9 | 0.00 | 0.00 | 0.00 | 77 | 1009.5 |
| 20260509053311 | 60 | 58 | 0.0 | 0.9 | 0.00 | 0.00 | 0.00 | 77 | 1009.9 |
| 20260509052809 | 60 | 45 | 0.0 | 0.0 | 0.00 | 0.00 | 0.00 | 76 | 1009.9 |
| 20260509052307 | 60 | 100 | 0.9 | 0.9 | 0.00 | 0.00 | 0.00 | 76 | 1009.6 |
| 20260509051804 | 60 | 52 | 0.0 | 0.0 | 0.00 | 0.00 | 0.00 | 76 | 1009.7 |
| 20260509051302 | 60 | 64 | 0.0 | 0.0 | 0.00 | 0.00 | 0.00 | 75 | 1009.7 |
| 20260509050758 | 60 | 51 | 0.0 | 0.0 | 0.00 | 0.00 | 0.00 | 75 | 1009.7 |
| 20260509050255 | 60 | 42 | 0.0 | 0.9 | 0.00 | 0.00 | 0.00 | 75 | 1010.0 |
| 20260509045752 | 59 | 38 | 0.0 | 0.9 | 0.00 | 0.00 | 0.00 | 76 | 1009.9 |
| 20260509045249 | 59 | 63 | 0.0 | 0.0 | 0.00 | 0.00 | 0.00 | 77 | 1009.8 |
| 20260509044746 | 59 | 67 | 0.0 | 0.0 | 0.00 | 0.00 | 0.00 | 77 | 1009.9 |
| 20260509044244 | 59 | 66 | 0.0 | 0.0 | 0.00 | 0.00 | 0.00 | 77 | 1010.1 |
| 20260509043740 | 60 | 64 | 0.0 | 0.0 | 0.00 | 0.00 | 0.00 | 76 | 1010.0 |
| 20260509043236 | 60 | 65 | 0.0 | 0.0 | 0.00 | 0.00 | 0.00 | 75 | 1009.9 |
| 20260509042732 | 60 | 55 | 0.0 | 0.0 | 0.00 | 0.00 | 0.00 | 74 | 1009.8 |
| 20260509042228 | 60 | 59 | 0.0 | 0.0 | 0.00 | 0.00 | 0.00 | 74 | 1010.0 |
| 20260509041725 | 60 | 53 | 0.0 | 0.0 | 0.00 | 0.00 | 0.00 | 74 | 1010.1 |
| 20260509041222 | 60 | 67 | 0.0 | 0.0 | 0.00 | 0.00 | 0.00 | 73 | 1010.1 |
| 20260509040721 | 60 | 52 | 0.0 | 0.0 | 0.00 | 0.00 | 0.00 | 72 | 1010.2 |
| 20260509040217 | 60 | 33 | 0.9 | 0.9 | 0.00 | 0.00 | 0.00 | 72 | 1010.1 |
| 20260509035714 | 60 | 87 | 0.0 | 0.9 | 0.00 | 0.00 | 0.00 | 72 | 1010.2 |
| 20260509035211 | 60 | 46 | 0.0 | 0.0 | 0.00 | 0.00 | 0.00 | 72 | 1009.9 |
| 20260509034708 | 60 | 39 | 0.0 | 0.0 | 0.00 | 0.00 | 0.00 | 72 | 1010.1 |
| 20260509034206 | 60 | 63 | 0.0 | 0.0 | 0.00 | 0.00 | 0.00 | 72 | 1009.9 |
| 20260509033702 | 60 | 65 | 0.0 | 0.0 | 0.00 | 0.00 | 0.00 | 71 | 1009.8 |
| 20260509033159 | 60 | 59 | 0.0 | 0.0 | 0.00 | 0.00 | 0.00 | 71 | 1009.7 |
| 20260509032657 | 60 | 52 | 0.0 | 0.0 | 0.00 | 0.00 | 0.00 | 71 | 1009.8 |
| 20260509032153 | 60 | 65 | 0.0 | 0.0 | 0.00 | 0.00 | 0.00 | 71 | 1009.7 |
| 20260509031651 | 60 | 50 | 0.0 | 0.0 | 0.00 | 0.00 | 0.00 | 70 | 1009.8 |
| 20260509031148 | 60 | 56 | 0.0 | 0.0 | 0.00 | 0.00 | 0.00 | 70 | 1009.8 |
| 20260509030647 | 60 | 60 | 0.0 | 0.0 | 0.00 | 0.00 | 0.00 | 70 | 1009.6 |
| 20260509030144 | 60 | 60 | 0.0 | 0.0 | 0.00 | 0.00 | 0.00 | 71 | 1009.9 |
| 20260509025639 | 60 | 60 | 0.0 | 0.0 | 0.00 | 0.00 | 0.00 | 70 | 1009.9 |
| 20260509025135 | 59 | 61 | 0.0 | 0.0 | 0.00 | 0.00 | 0.00 | 71 | 1010.0 |
| 20260509024630 | 59 | 61 | 0.0 | 0.0 | 0.00 | 0.00 | 0.00 | 71 | 1009.7 |
| 20260509024127 | 59 | 60 | 0.0 | 0.0 | 0.00 | 0.00 | 0.00 | 71 | 1009.6 |
| 20260509023625 | 60 | 60 | 0.0 | 0.0 | 0.00 | 0.00 | 0.00 | 70 | 1009.6 |
| 20260509023121 | 60 | 60 | 0.0 | 0.0 | 0.00 | 0.00 | 0.00 | 69 | 1009.7 |
| 20260509022618 | 60 | 60 | 0.0 | 0.0 | 0.00 | 0.00 | 0.00 | 69 | 1009.5 |
| 20260509022116 | 60 | 60 | 0.0 | 0.0 | 0.00 | 0.00 | 0.00 | 69 | 1009.5 |
| 20260509021613 | 61 | 60 | 0.0 | 0.0 | 0.00 | 0.00 | 0.00 | 69 | 1009.3 |
| 20260509021110 | 60 | 61 | 0.0 | 0.0 | 0.00 | 0.00 | 0.00 | 68 | 1009.5 |
| 20260509020608 | 60 | 61 | 0.0 | 0.0 | 0.00 | 0.00 | 0.00 | 69 | 1009.5 |
| 20260509020104 | 60 | 61 | 0.0 | 0.0 | 0.00 | 0.00 | 0.00 | 69 | 1009.4 |
| 20260509015604 | 60 | 60 | 0.0 | 0.0 | 0.00 | 0.00 | 0.00 | 69 | 1009.5 |
| 20260509015100 | 60 | 60 | 0.0 | 0.0 | 0.00 | 0.00 | 0.00 | 71 | 1009.6 |
| 20260509014557 | 60 | 60 | 0.0 | 0.0 | 0.00 | 0.00 | 0.00 | 70 | 1009.5 |
| 20260509014053 | 60 | 60 | 0.0 | 0.0 | 0.00 | 0.00 | 0.00 | 71 | 1009.7 |
| 20260509013550 | 60 | 60 | 0.0 | 0.0 | 0.00 | 0.00 | 0.00 | 70 | 1009.8 |
| 20260509013045 | 61 | 60 | 0.0 | 0.0 | 0.00 | 0.00 | 0.00 | 68 | 1009.7 |
| 20260509012543 | 62 | 60 | 0.0 | 0.0 | 0.00 | 0.00 | 0.00 | 67 | 1009.6 |
| 20260509012040 | 62 | 60 | 0.0 | 0.0 | 0.00 | 0.00 | 0.00 | 67 | 1009.5 |
| 20260509011537 | 62 | 60 | 0.0 | 0.0 | 0.00 | 0.00 | 0.00 | 66 | 1009.5 |
| 20260509011035 | 62 | 60 | 0.0 | 0.0 | 0.00 | 0.00 | 0.00 | 66 | 1009.5 |
| 20260509010532 | 63 | 60 | 0.0 | 0.0 | 0.00 | 0.00 | 0.00 | 64 | 1009.6 |
| 20260509010029 | 64 | 60 | 0.0 | 0.0 | 0.00 | 0.00 | 0.00 | 63 | 1009.6 |
| 20260509005526 | 64 | 60 | 0.0 | 0.0 | 0.00 | 0.00 | 0.00 | 63 | 1009.7 |
| 20260509005026 | 65 | 60 | 0.0 | 0.0 | 0.00 | 0.00 | 0.00 | 59 | 1009.8 |
| 20260509004524 | 66 | 60 | 0.0 | 0.0 | 0.00 | 0.00 | 0.00 | 58 | 1009.8 |
| 20260509004021 | 67 | 60 | 0.0 | 0.0 | 0.00 | 0.00 | 0.00 | 59 | 1009.8 |
| 20260509003519 | 68 | 60 | 0.0 | 0.0 | 0.00 | 0.00 | 0.00 | 56 | 1009.8 |
| 20260509003016 | 68 | 61 | 0.0 | 0.0 | 0.00 | 0.00 | 0.00 | 53 | 1009.7 |
| 20260509002513 | 69 | 60 | 0.0 | 0.0 | 0.00 | 0.00 | 0.00 | 53 | 1009.7 |
| 20260509002010 | 69 | 57 | 0.0 | 0.0 | 0.00 | 0.00 | 0.00 | 51 | 1009.9 |
| 20260509001508 | 70 | 61 | 0.0 | 0.0 | 0.00 | 0.00 | 0.00 | 49 | 1009.6 |
| 20260509001004 | 70 | 42 | 0.0 | 0.0 | 0.00 | 0.00 | 0.00 | 48 | 1009.8 |
| 20260509000502 | 71 | 42 | 0.0 | 0.9 | 0.00 | 0.00 | 0.00 | 48 | 1009.8 |
| 20260508235957 | 71 | 54 | 0.0 | 0.0 | 0.00 | 0.00 | 0.00 | 47 | 1009.6 |
| 20260508235456 | 71 | 53 | 0.0 | 0.0 | 0.00 | 0.00 | 0.00 | 46 | 1010.0 |
| 20260508234952 | 72 | 46 | 0.0 | 0.0 | 0.00 | 0.00 | 0.00 | 45 | 1010.1 |
| 20260508234449 | 72 | 75 | 0.0 | 0.9 | 0.00 | 0.00 | 0.00 | 45 | 1009.9 |
| 20260508233946 | 72 | 29 | 0.9 | 0.9 | 0.00 | 0.00 | 0.00 | 44 | 1010.0 |
| 20260508233446 | 72 | 51 | 0.0 | 0.9 | 0.00 | 0.00 | 0.00 | 44 | 1009.9 |
| 20260508232942 | 73 | 62 | 0.0 | 0.0 | 0.00 | 0.00 | 0.00 | 44 | 1010.2 |
| 20260508232439 | 73 | 48 | 0.9 | 0.9 | 0.00 | 0.00 | 0.00 | 44 | 1010.1 |
| 20260508231936 | 73 | 45 | 0.0 | 0.0 | 0.00 | 0.00 | 0.00 | 45 | 1010.1 |
| 20260508231434 | 73 | 41 | 0.0 | 0.9 | 0.00 | 0.00 | 0.00 | 43 | 1010.0 |
| 20260508230930 | 73 | 279 | 0.9 | 1.7 | 0.00 | 0.00 | 0.00 | 42 | 1010.2 |
| 20260508230427 | 73 | 57 | 0.0 | 0.0 | 0.00 | 0.00 | 0.00 | 44 | 1010.4 |
| 20260508225924 | 73 | 72 | 0.9 | 0.9 | 0.00 | 0.00 | 0.00 | 42 | 1010.3 |
| 20260508225421 | 73 | 290 | 3.5 | 3.5 | 0.00 | 0.00 | 0.00 | 41 | 1010.5 |
| 20260508224918 | 74 | 309 | 0.9 | 1.7 | 0.00 | 0.00 | 0.00 | 42 | 1010.5 |
| 20260508224416 | 74 | 78 | 0.0 | 0.9 | 0.00 | 0.00 | 0.00 | 43 | 1010.5 |
| 20260508223913 | 74 | 17 | 0.9 | 0.9 | 0.00 | 0.00 | 0.00 | 42 | 1010.5 |
| 20260508223411 | 74 | 250 | 1.7 | 1.7 | 0.00 | 0.00 | 0.00 | 42 | 1010.5 |
| 20260508222908 | 74 | 10 | 1.7 | 1.7 | 0.00 | 0.00 | 0.00 | 41 | 1010.6 |
| 20260508222405 | 74 | 55 | 0.9 | 1.7 | 0.00 | 0.00 | 0.00 | 40 | 1010.4 |
| 20260508221901 | 74 | 60 | 0.0 | 0.9 | 0.00 | 0.00 | 0.00 | 42 | 1010.6 |
| 20260508221357 | 74 | 208 | 0.9 | 1.7 | 0.00 | 0.00 | 0.00 | 42 | 1010.5 |
| 20260508220854 | 75 | 17 | 0.9 | 0.9 | 0.00 | 0.00 | 0.00 | 41 | 1010.5 |
| 20260508220350 | 75 | 262 | 1.7 | 2.6 | 0.00 | 0.00 | 0.00 | 41 | 1010.4 |
| 20260508215847 | 76 | 334 | 1.7 | 1.7 | 0.00 | 0.00 | 0.00 | 39 | 1010.5 |
| 20260508215344 | 76 | 173 | 0.9 | 2.6 | 0.00 | 0.00 | 0.00 | 44 | 1010.5 |
| 20260508214840 | 76 | 262 | 1.7 | 1.7 | 0.00 | 0.00 | 0.00 | 39 | 1010.5 |
| 20260508214338 | 76 | 322 | 0.9 | 0.9 | 0.00 | 0.00 | 0.00 | 39 | 1010.5 |
| 20260508213834 | 77 | 161 | 0.9 | 0.9 | 0.00 | 0.00 | 0.00 | 38 | 1010.6 |
| 20260508213331 | 76 | 84 | 1.7 | 1.7 | 0.00 | 0.00 | 0.00 | 39 | 1010.6 |
| 20260508212827 | 76 | 76 | 0.9 | 1.7 | 0.00 | 0.00 | 0.00 | 40 | 1010.6 |
| 20260508212323 | 76 | 54 | 0.0 | 0.9 | 0.00 | 0.00 | 0.00 | 39 | 1010.6 |
| 20260508211819 | 76 | 323 | 4.3 | 5.2 | 0.00 | 0.00 | 0.00 | 37 | 1010.9 |
| 20260508211315 | 76 | 42 | 0.9 | 0.9 | 0.00 | 0.00 | 0.00 | 39 | 1010.7 |
| 20260508210813 | 76 | 319 | 1.7 | 2.6 | 0.00 | 0.00 | 0.00 | 39 | 1010.8 |
| 20260508210309 | 76 | 301 | 1.7 | 2.6 | 0.00 | 0.00 | 0.00 | 38 | 1010.7 |
| 20260508205806 | 76 | 27 | 0.9 | 1.7 | 0.00 | 0.00 | 0.00 | 39 | 1011.1 |
| 20260508205305 | 77 | 292 | 3.5 | 5.2 | 0.00 | 0.00 | 0.00 | 37 | 1011.0 |
| 20260508204759 | 76 | 51 | 0.0 | 0.0 | 0.00 | 0.00 | 0.00 | 44 | 1011.2 |
| 20260508204255 | 76 | 262 | 1.7 | 2.6 | 0.00 | 0.00 | 0.00 | 41 | 1011.1 |
| 20260508203752 | 76 | 163 | 0.9 | 0.9 | 0.00 | 0.00 | 0.00 | 38 | 1011.1 |
| 20260508203248 | 76 | 41 | 1.7 | 1.7 | 0.00 | 0.00 | 0.00 | 39 | 1011.4 |
| 20260508202744 | 76 | 68 | 1.7 | 2.6 | 0.00 | 0.00 | 0.00 | 36 | 1011.3 |
| 20260508202241 | 76 | 95 | 0.9 | 1.7 | 0.00 | 0.00 | 0.00 | 39 | 1011.5 |
| 20260508201738 | 76 | 255 | 1.7 | 1.7 | 0.00 | 0.00 | 0.00 | 38 | 1011.4 |
| 20260508201235 | 76 | 61 | 0.0 | 0.9 | 0.00 | 0.00 | 0.00 | 38 | 1011.3 |
| 20260508200732 | 76 | 19 | 1.7 | 2.6 | 0.00 | 0.00 | 0.00 | 37 | 1011.5 |
| 20260508200228 | 76 | 64 | 1.7 | 1.7 | 0.00 | 0.00 | 0.00 | 37 | 1011.4 |
| 20260508195724 | 75 | 36 | 0.9 | 0.9 | 0.00 | 0.00 | 0.00 | 41 | 1011.7 |
| 20260508195221 | 75 | 51 | 2.6 | 3.5 | 0.00 | 0.00 | 0.00 | 40 | 1011.9 |
| 20260508194717 | 75 | 279 | 2.6 | 3.5 | 0.00 | 0.00 | 0.00 | 40 | 1011.9 |
| 20260508194214 | 75 | 41 | 1.7 | 1.7 | 0.00 | 0.00 | 0.00 | 42 | 1012.0 |
| 20260508193711 | 75 | 51 | 0.9 | 0.9 | 0.00 | 0.00 | 0.00 | 39 | 1012.1 |
| 20260508193208 | 75 | 14 | 1.7 | 1.7 | 0.00 | 0.00 | 0.00 | 39 | 1012.2 |
| 20260508192704 | 75 | 317 | 1.7 | 3.5 | 0.00 | 0.00 | 0.00 | 37 | 1012.4 |
| 20260508192202 | 74 | 274 | 2.6 | 2.6 | 0.00 | 0.00 | 0.00 | 40 | 1012.5 |
| 20260508191659 | 74 | 341 | 0.9 | 1.7 | 0.00 | 0.00 | 0.00 | 39 | 1012.6 |
| 20260508191155 | 74 | 52 | 0.0 | 0.9 | 0.00 | 0.00 | 0.00 | 42 | 1012.6 |
| 20260508190653 | 74 | 273 | 2.6 | 2.6 | 0.00 | 0.00 | 0.00 | 40 | 1012.7 |
| 20260508190149 | 74 | 16 | 1.7 | 1.7 | 0.00 | 0.00 | 0.00 | 43 | 1012.7 |
| 20260508185646 | 73 | 9 | 2.6 | 2.6 | 0.00 | 0.00 | 0.00 | 39 | 1012.9 |
| 20260508185143 | 73 | 282 | 3.5 | 5.2 | 0.00 | 0.00 | 0.00 | 39 | 1013.0 |
| 20260508184640 | 74 | 358 | 3.5 | 5.2 | 0.00 | 0.00 | 0.00 | 38 | 1013.3 |
| 20260508184138 | 74 | 9 | 0.9 | 0.9 | 0.00 | 0.00 | 0.00 | 38 | 1013.1 |
| 20260508183634 | 73 | 60 | 0.9 | 0.9 | 0.00 | 0.00 | 0.00 | 41 | 1013.4 |
| 20260508183130 | 74 | 326 | 4.3 | 6.1 | 0.00 | 0.00 | 0.00 | 40 | 1013.4 |
| 20260508182626 | 74 | 64 | 0.9 | 1.7 | 0.00 | 0.00 | 0.00 | 42 | 1013.3 |
| 20260508182123 | 73 | 43 | 1.7 | 1.7 | 0.00 | 0.00 | 0.00 | 45 | 1013.7 |
| 20260508181618 | 73 | 138 | 1.7 | 2.6 | 0.00 | 0.00 | 0.00 | 44 | 1013.6 |
| 20260508181116 | 73 | 7 | 1.7 | 2.6 | 0.00 | 0.00 | 0.00 | 42 | 1013.9 |
| 20260508180613 | 73 | 50 | 2.6 | 3.5 | 0.00 | 0.00 | 0.00 | 39 | 1013.8 |
| 20260508180109 | 73 | 159 | 0.9 | 1.7 | 0.00 | 0.00 | 0.00 | 40 | 1013.7 |
| 20260508175606 | 73 | 23 | 0.9 | 1.7 | 0.00 | 0.00 | 0.00 | 40 | 1013.6 |
| 20260508175103 | 73 | 286 | 2.6 | 2.6 | 0.00 | 0.00 | 0.00 | 40 | 1013.8 |
| 20260508174601 | 73 | 35 | 0.9 | 0.9 | 0.00 | 0.00 | 0.00 | 43 | 1013.7 |
| 20260508174057 | 73 | 41 | 1.7 | 1.7 | 0.00 | 0.00 | 0.00 | 41 | 1014.0 |
| 20260508173554 | 72 | 17 | 0.9 | 0.9 | 0.00 | 0.00 | 0.00 | 41 | 1013.9 |
| 20260508173050 | 72 | 67 | 1.7 | 2.6 | 0.00 | 0.00 | 0.00 | 43 | 1014.1 |
| 20260508172548 | 72 | 313 | 4.3 | 5.2 | 0.00 | 0.00 | 0.00 | 43 | 1014.2 |
| 20260508172044 | 71 | 267 | 1.7 | 1.7 | 0.00 | 0.00 | 0.00 | 44 | 1014.3 |
| 20260508171541 | 71 | 93 | 2.6 | 3.5 | 0.00 | 0.00 | 0.00 | 42 | 1014.5 |
| 20260508171037 | 71 | 48 | 1.7 | 2.6 | 0.00 | 0.00 | 0.00 | 42 | 1014.5 |
| 20260508170535 | 73 | 259 | 5.2 | 7.0 | 0.00 | 0.00 | 0.00 | 39 | 1014.6 |
| 20260508170032 | 72 | 127 | 0.9 | 1.7 | 0.00 | 0.00 | 0.00 | 42 | 1014.7 |
| 20260508165529 | 71 | 67 | 0.9 | 0.9 | 0.00 | 0.00 | 0.00 | 42 | 1014.7 |
| 20260508165026 | 72 | 70 | 2.6 | 3.5 | 0.00 | 0.00 | 0.00 | 44 | 1015.0 |
| 20260508164522 | 71 | 18 | 0.9 | 0.9 | 0.00 | 0.00 | 0.00 | 41 | 1014.8 |
| 20260508164019 | 71 | 56 | 1.7 | 1.7 | 0.00 | 0.00 | 0.00 | 45 | 1014.8 |
| 20260508163517 | 71 | 241 | 3.5 | 5.2 | 0.00 | 0.00 | 0.00 | 41 | 1015.0 |
| 20260508163013 | 70 | 124 | 1.7 | 1.7 | 0.00 | 0.00 | 0.00 | 45 | 1015.1 |